This is the latest recevied weather packets stored in our database for station/object PA3DZX-13. If no packets are shown the sender has not sent any weather packets the latest 10 day(s).
| Time | Temp. | Humidity | Pressure | Rain* | Wind** | Luminosity | Snow |
|---|---|---|---|---|---|---|---|
| 1788154614 | 60° F | 85% | 756.6 mmHg | 0 in | - | - | - |
| 1788153714 | 60° F | 84% | 756.4 mmHg | 0 in | - | - | - |
| 1788152814 | 60° F | 84% | 756.5 mmHg | 0 in | - | - | - |
| 1788151913 | 60° F | 84% | 756.5 mmHg | 0 in | - | - | - |
| 1788151014 | 60° F | 84% | 756.4 mmHg | 0 in | - | - | - |
| 1788150113 | 60° F | 83% | 756.4 mmHg | 0 in | - | - | - |
| 1788149213 | 60° F | 83% | 756.5 mmHg | 0 in | - | - | - |
| 1788148313 | 60° F | 84% | 756.7 mmHg | 0 in | - | - | - |
| 1788147413 | 59° F | 86% | 756.6 mmHg | 0 in | - | - | - |
| 1788146513 | 59° F | 87% | 756.5 mmHg | 0 in | - | - | - |
| 1788145613 | 59° F | 87% | 756.6 mmHg | 0 in | - | - | - |
| 1788144712 | 59° F | 86% | 756.6 mmHg | 0 in | - | - | - |
| 1788143812 | 60° F | 85% | 756.6 mmHg | 0 in | - | - | - |
| 1788142912 | 60° F | 84% | 756.6 mmHg | 0 in | - | - | - |
| 1788142012 | 60° F | 84% | 756.7 mmHg | 0 in | - | - | - |
| 1788141112 | 60° F | 84% | 756.8 mmHg | 0 in | - | - | - |
| 1788140212 | 60° F | 83% | 756.8 mmHg | 0 in | - | - | - |
| 1788139311 | 62° F | 81% | 757 mmHg | 0 in | - | - | - |
| 1788138412 | 62° F | 80% | 757.1 mmHg | 0 in | - | - | - |
| 1788137511 | 60° F | 83% | 757.3 mmHg | 0 in | - | - | - |
| 1788136611 | 60° F | 83% | 757.2 mmHg | 0 in | - | - | - |
| 1788135711 | 60° F | 84% | 757.2 mmHg | 0 in | - | - | - |
| 1788134811 | 60° F | 84% | 757.3 mmHg | 0 in | - | - | - |
| 1788133911 | 60° F | 83% | 757.3 mmHg | 0 in | - | - | - |
| 1788133011 | 60° F | 82% | 757.3 mmHg | 0 in | - | - | - |
* Rain latest hour (hover to see other rain measurements)
** Current wind speed in m/s (hover to see current wind gust speed)